Home   Weather   Ponta Delgada   Past weeks

Flag for Portugal Past Weather in Ponta Delgada, Azores, Portugal — Yesterday and Last 2 Weeks

Now
63 °F

Passing clouds.


Feels Like: 63 °F
Forecast: 59 / 64 °F
Wind: 8 mph from Southwest

Location: Ponta Delgada / Nordela Acores

Current Time: Dec 8, 2016 at 5:14:53 pm

Latest Report: Dec 8, 2016 at 4:30 pm


Visibility: N/A

Pressure: 29.92 "Hg

Humidity: 73%

Dew Point: 54 °F

Location of Ponta DelgadaLocation

Past Weather in Ponta Delgada — Graph

°F

Ponta Delgada Temperature Yesterday

Maximum temperature yesterday: 66 °F (at 3:00 pm)
Minimum temperature yesterday: 57 °F (at 8:00 am)
Average temperature yesterday: 64 °F

High & Low Weather Summary for the Past Weeks

 TemperatureHumidityPressure
High68 °F (Dec 5, 11:00 pm)100% (Nov 27, 7:30 am)30.30 "Hg (Nov 27, 7:30 am)
Low52 °F (Nov 26, 3:00 am)56% (Nov 28, 12:30 pm)29.39 "Hg (Dec 2, 1:30 pm)
Average61 °F83%29.88 "Hg
* Reported Nov 23 4:00 pm — Dec 8 4:00 pm, Ponta Delgada, Weather by CustomWeather, © 2016

Note: Actual official high and low records may vary slightly from our data, if they occured in-between our weather recording intervals... More about our weather records

Advertising

Ponta Delgada Weather History for the Previous 24 Hours

Scroll right to see more
 ConditionsComfort  
Time TempWeatherWind HumidityBarometerVisibility
4:00 pm
Thu, Dec 8
63 °FPassing clouds.7 mph73%29.92 "HgN/A
3:30 pm63 °FPassing clouds.7 mph68%29.89 "HgN/A
3:00 pm61 °FPassing clouds.6 mph83%29.89 "HgN/A
2:30 pm61 °FPassing clouds.9 mph77%29.89 "HgN/A
2:00 pm61 °FPassing clouds.7 mph77%29.89 "HgN/A
1:30 pm61 °FPassing clouds.7 mph77%29.89 "HgN/A
1:00 pm61 °FPartly sunny.7 mph77%29.89 "HgN/A
12:30 pm59 °FPartly sunny.15 mph72%29.89 "HgN/A
12:00 pm59 °FPartly sunny.14 mph82%29.89 "HgN/A
11:30 am61 °FScattered showers. Partly sunny.12 mph77%29.89 "HgN/A
11:00 am63 °FScattered clouds.12 mph68%29.89 "HgN/A
10:30 am63 °FPassing clouds.14 mph73%29.86 "HgN/A
10:00 am63 °FPassing clouds.15 mph68%29.86 "HgN/A
9:30 am61 °FPassing clouds.18 mph72%29.83 "HgN/A
9:00 am63 °FPassing clouds.18 mph68%29.83 "HgN/A
8:30 am63 °FScattered clouds.18 mph73%29.80 "HgN/A
8:00 am61 °FPassing clouds.18 mph72%29.80 "HgN/A
7:30 am61 °FPassing clouds.21 mph72%29.77 "HgN/A
7:00 am61 °FPassing clouds.22 mph72%29.74 "HgN/A
6:30 am61 °FPassing clouds.23 mph72%29.74 "HgN/A
6:00 am61 °FPassing clouds.22 mph77%29.71 "HgN/A
5:30 am61 °FPassing clouds.21 mph77%29.71 "HgN/A
5:00 am61 °FPassing clouds.21 mph77%29.68 "HgN/A
4:30 am61 °FPassing clouds.23 mph77%29.68 "HgN/A
4:00 am63 °FPassing clouds.22 mph83%29.65 "HgN/A
3:30 am63 °FPassing clouds.22 mph88%29.62 "HgN/A
3:00 am63 °FPassing clouds.22 mph94%29.62 "HgN/A
2:30 am61 °FPassing clouds.21 mph94%29.62 "HgN/A
2:00 am59 °FPassing clouds.18 mph94%29.59 "HgN/A
1:30 am59 °FLight rain. Passing clouds.22 mph94%29.59 "Hg5 mi
12:30 am66 °FLight rain. Passing clouds.31 mph88%29.59 "Hg4 mi
12:00 am66 °FPartly cloudy.30 mph88%29.62 "HgN/A
11:30 pm
Wed, Dec 7
66 °FPartly cloudy.30 mph88%29.62 "HgN/A
11:00 pm66 °FPartly cloudy.30 mph88%29.68 "HgN/A
10:30 pm66 °FPassing clouds.29 mph88%29.68 "HgN/A
10:00 pm66 °FPassing clouds.29 mph88%29.68 "HgN/A
9:30 pm66 °FPassing clouds.26 mph88%29.71 "HgN/A
9:00 pm64 °FPassing clouds.23 mph94%29.71 "HgN/A
8:30 pm64 °FPassing clouds.24 mph94%29.74 "HgN/A
8:00 pm64 °FPassing clouds.24 mph94%29.77 "HgN/A
7:30 pm66 °FPassing clouds.21 mph88%29.77 "HgN/A
7:00 pm64 °FPassing clouds.21 mph94%29.77 "HgN/A
6:30 pm64 °FPassing clouds.21 mph94%29.77 "HgN/A
6:00 pm64 °FPassing clouds.16 mph94%29.74 "HgN/A
5:30 pm64 °FPassing clouds.17 mph94%29.77 "HgN/A
5:00 pm64 °FPassing clouds.18 mph94%29.77 "HgN/A
Weather by CustomWeather, © 2016

See weather overviewHow to use our weather pages